Weather History for Red Bluff, CA

Change the Weather History Date:

Sunday, December 2, 2012

  Actual Average Record
Temperature  
Mean Temperature 54 °F -  
Max Temperature 63 °F 57 °F 81 °F (1958)
Min Temperature 44 °F 39 °F 31 °F (1969)
Degree Days  
Heating Degree Days 11    
Growing Degree Days 4 (Base 50)    
Moisture  
Dew Point 48 °F    
Average Humidity 74    
Maximum Humidity 96    
Minimum Humidity 27    
Precipitation  
Precipitation 0.94 in - - ()
Sea Level Pressure  
Sea Level Pressure 29.77 in    
Wind  
Wind Speed 23 mph (SSW)    
Max Wind Speed 45 mph    
Max Gust Speed 55 mph    
Visibility 8 miles    
Events Rain    
Averages and records for this station are not official NWS values.
T = Trace of Precipitation, MM = Missing Value Source: NWS Daily Summary

Daily Weather History Graph

Daily Weather History Graph

Search for Another Location

Airport:

Trip Planner

Search our weather history database for the weather conditions in past years. The results will help you decide how hot, cold, wet, or windy it might be!

Date:

Astronomy

Dec. 02, 2012 Rise Set
Actual Time 7:13 AM PST 4:43 PM PST
Civil Twilight 6:43 AM PST 5:13 PM PST
Nautical Twilight 6:09 AM PST 5:47 PM PST
Astronomical Twilight 5:36 AM PST 6:20 PM PST
Moon 8:36 PM PST (12/2) 10:06 AM PST (12/2)
Length of Visible Light 10h 30m
Length of Day
9h 29m
Waning Gibbous, 85% of the Moon is Illuminated
Dec 2
Waning Gibbous
Dec 6
Last Quarter
Dec 13
New
Dec 19
First Quarter
Dec 28
Full

Hourly Weather History & Observations

Time (PST) Temp. Windchill Dew Point Humidity Pressure Visibility Wind Dir Wind Speed Gust Speed Precip Events Conditions
12:54 AM 59.0 °F - 55.0 °F 87% 29.59 in 10.0 mi SSE 41.4 mph 50.6 mph 0.04 in Rain Light Rain
1:54 AM 60.1 °F - 55.9 °F 86% 29.54 in 8.0 mi SSE 44.9 mph 51.8 mph 0.03 in Rain Light Rain
2:54 AM 59.0 °F - 57.0 °F 93% 29.52 in 5.0 mi SSE 40.3 mph 55.2 mph 0.09 in Rain Light Rain
3:54 AM 59.0 °F - 57.0 °F 93% 29.48 in 5.0 mi SSE 40.3 mph 55.2 mph 0.03 in Rain Rain
4:37 AM 59.0 °F - 57.2 °F 94% 29.50 in 2.5 mi SSE 39.1 mph 51.8 mph 0.21 in Rain Heavy Rain
4:54 AM 59.0 °F - 57.9 °F 96% 29.50 in 3.0 mi South 34.5 mph 44.9 mph 0.36 in Rain Heavy Rain
5:08 AM 59.0 °F - 57.2 °F 94% 29.56 in 4.0 mi SW 24.2 mph 44.9 mph 0.05 in Rain Rain
5:14 AM 59.0 °F - 57.2 °F 94% 29.57 in 2.5 mi WSW 16.1 mph 34.5 mph 0.10 in Rain Heavy Rain
5:22 AM 59.0 °F - 57.2 °F 94% 29.57 in 1.5 mi SW 17.3 mph 33.4 mph 0.37 in Rain Heavy Rain
5:27 AM 60.8 °F - 57.2 °F 88% 29.57 in 3.0 mi WSW 15.0 mph 31.1 mph 0.41 in Rain Heavy Rain
5:40 AM 60.8 °F - 57.2 °F 88% 29.57 in 5.0 mi SW 6.9 mph - 0.47 in Rain Rain
5:54 AM 59.0 °F - 55.9 °F 90% 29.57 in 8.0 mi SW 6.9 mph - 0.52 in Rain Rain
6:54 AM 55.9 °F - 51.1 °F 84% 29.59 in 10.0 mi South 16.1 mph - 0.06 in Rain Light Rain
7:54 AM 55.0 °F - 50.0 °F 83% 29.60 in 10.0 mi SE 16.1 mph - 0.00 in Rain Light Rain
8:54 AM 55.0 °F - 51.1 °F 86% 29.68 in 10.0 mi SSE 12.7 mph - 0.00 in   Mostly Cloudy
9:24 AM 57.2 °F - 48.2 °F 72% 29.74 in 9.0 mi Variable 4.6 mph 17.3 mph 0.00 in Rain Light Rain
9:31 AM 55.4 °F - 50.0 °F 82% 29.74 in 7.0 mi SSW 8.1 mph - 0.02 in Rain Light Rain
9:54 AM 57.0 °F - 48.9 °F 74% 29.76 in 10.0 mi Variable 4.6 mph - 0.02 in   Mostly Cloudy
10:54 AM 60.1 °F - 43.0 °F 53% 29.80 in 10.0 mi WNW 6.9 mph - N/A   Clear
11:54 AM 60.1 °F - 46.0 °F 60% 29.83 in 10.0 mi ESE 8.1 mph - N/A   Clear
12:54 PM 60.1 °F - 46.9 °F 62% 29.86 in 10.0 mi SE 4.6 mph - N/A   Clear
1:54 PM 63.0 °F - 37.9 °F 40% 29.88 in 10.0 mi NNW 6.9 mph - N/A   Clear
2:54 PM 63.0 °F - 37.9 °F 40% 29.93 in 10.0 mi WNW 8.1 mph - N/A   Clear
3:54 PM 61.0 °F - 36.0 °F 39% 29.94 in 10.0 mi NNW 4.6 mph - N/A   Clear
4:54 PM 59.0 °F - 36.0 °F 42% 29.97 in 10.0 mi Calm Calm - N/A   Clear
5:54 PM 54.0 °F - 37.9 °F 55% 30.00 in 10.0 mi NNW 4.6 mph - N/A   Clear
6:54 PM 48.9 °F - 39.0 °F 69% 30.02 in 10.0 mi NNE 4.6 mph - N/A   Clear
7:54 PM 48.9 °F - 41.0 °F 74% 30.05 in 10.0 mi Calm Calm - N/A   Clear
8:54 PM 45.0 °F 42.6 °F 39.9 °F 82% 30.08 in 10.0 mi NW 4.6 mph - N/A   Clear
9:54 PM 46.9 °F - 37.9 °F 71% 30.11 in 10.0 mi Calm Calm - N/A   Clear
10:54 PM 45.0 °F - 39.9 °F 82% 30.10 in 10.0 mi Calm Calm - N/A   Clear
11:54 PM 44.1 °F 41.5 °F 39.0 °F 82% 30.11 in 10.0 mi NW 4.6 mph - N/A   Clear